OVZON-3

Last updated on Sat Nov 15 2025 00:02:52 GMT+0000 (Coordinated Universal Time)

1 58698U 24003A 25318.53642027 .00000054 00000+0 00000+0 0 9990 2 58698 0.0163 206.8771 0000005 255.1631 204.6889 1.00273675 5280
UTC large
Height (km)
Speed (km/s)
/
Latitude / Longitude
Inclination (degrees)
Orbital Period (minutes)
Azimuth
Elevation
Range (km)
Doppler Factor

Next 0 passes for location: London (51.5072 / 0.1276)

Sorry there are no passes over London.